{"data":{"norad_id":45570,"epoch":"2026-09-19T13:51:51.196032Z","epoch_age_seconds":101585,"freshness":"FRESH","line1":"1 45570U 20025AR  26262.57767588  .00020805  00000+0  40761-3 0  9996","line2":"2 45570  53.1503 245.1210 0004899  57.7027 302.4455 15.47366171355358","mean_motion":15.47366171,"eccentricity":0.0004899,"inclination_deg":53.1503,"raan_deg":245.121,"arg_perigee_deg":57.7027,"mean_anomaly_deg":302.4455,"bstar":0.00040761,"rev_number":35535,"period_min":93.061359811775,"perigee_km":421.10182834806,"apogee_km":427.7669878137,"semimajor_km":6802.5714080809,"source":"CELESTRAK","updated_at":"2026-09-20T09:00:38.447854Z"}}